www.pogodaiklimat.ru

Погода и климат >> Архив погоды >> Мексика >> Toluca


ПОГОДА в Toluca

  • Прогноз погоды в Toluca
  • Монитор погоды в Toluca
  • Климат города

АРХИВ ПОГОДЫ в Toluca

Время (UTC), дата Ветер
(напр.,м/с)
 
Видим.   Явления Облачность Т
(С)
Тd
(С)
f
(%)
Тe
(С)
Тes
(С)
Комфортность P
(гПа)
Po
(гПа)
Тmin
(С)
Tmax
(С)
R
(мм)
R24
(мм)
S
(см)
00 18.05 Ю 3 10 км гроза без осадков 8/8 800 м
[Cb calv]
+23.8 +10.2 42 +25 +25 комфорт 998.2 736.2 +30.0
03 18.05 Ю 3 10 км гроза без осадков 8/8 800 м
[Cb calv]
+23.8 +10.2 42 +25 +25 комфорт 998.2 736.2 +30.0
06 18.05 СВ 1 10 км {дождь, туман} 5/3 800 м
[Sc diur, vesp Ac und]
+17.7 +11.0 65 +19 +19 999.0 737.6 0.4
09 18.05 Ю 1 10 км 1/1 800 м
[Sc diur, vesp]
+12.8 +9.1 78 +13 +13 1003.0 736.3
12 18.05 З 1 10 км мгла {туман} 9/4 800 м
[Sc diur, vesp Ac und]
+11.1 +9.0 87 +11 +11 1008.1 737.1 +9.9 +30.0
15 18.05 СЗ 2 18 км {туман} туман ясно +18.7 +10.2 58 +20 +29 1010.8 738.4
18 18.05 СЗ 2 18 км {туман} 3/3 800 м
[Cu med, cong]
+25.4 +10.4 39 +26 +42 жарко 1007.4 737.4 +9.7 +26.2
21 18.05 СВ 2 15 км мгла {туман} 6/6 800 м
[Cb calv]
+28.6 +8.0 27 +28 +34 жарко 1001.5 735.8
00 19.05 Ю 2 15 км гроза без осадков {дождь} 9/9 600 м
[Cb cap]
+21.6 +12.3 55 +24 +24 комфорт 997.8 735.3 3
03 19.05 ЮЗ 1 10 км {туман} 6/5 800 м
[Cb calv Ac und]
+16.1 +6.5 53 +17 +17 999.5 737.0
06 19.05 Ю 1 10 км 1/1 600 м
[Sc diur, vesp]
+13.2 +8.2 72 +13 +13 1002.5 737.4 +9.7 +29.6
09 19.05 СЗ 1 10 км ясно +11.3 +8.0 80 +11 +11 1005.0 736.2
12 19.05 ЮВ 1 10 км мгла {туман} ясно +9.6 +6.4 80 +9 +9 1008.6 736.4 +8.4 +29.6
15 19.05 СВ 1 18 км туман ясно +18.1 +9.2 56 +19 +30 1011.2 737.5
18 19.05 С 2 20 км {туман} туман 1/1 800 м
[Cu med, cong]
+25.9 +7.0 30 +26 +45 жарко 1007.6 736.8 +8.4 +26.5
21 19.05 СВ 1 15 км мгла {туман} 4/3 800 м
[Cu med, cong Ci]
+27.2 +3.1 21 +26 +38 жарко 1001.2 735.1
00 20.05 ЮЗ 5 15 км мгла {туман} 6/6 600 м
[Cb calv Ci]
+24.0 +8.5 37 +25 +25 комфорт 996.4 734.6 +8.4 +29.8
03 20.05 В 2 10 км слабый дождь {гроза} 9/8 800 м
[Cb cap Ac cuf]
+17.5 +10.1 62 +18 +18 997.2 736.3 1
06 20.05 СЗ 1 10 км {гроза, дождь} 5/3 600 м
[Sc diur, vesp Ac trans]
+14.3 +9.2 71 +15 +15 1000.9 737.3 1
09 20.05 З 1 10 км 1/1 800 м
[Sc diur, vesp]
+11.7 +8.3 80 +12 +12 1003.4 736.3
12 20.05 ЮВ 1 10 км мгла 1/1 800 м
[Sc diur, vesp]
+9.6 +6.5 81 +9 +9 1007.2 736.1 +9.5 +29.8
15 20.05 Ю 1 25 км ясно +18.1 +8.2 52 +19 +30 1010.3 737.2
18 20.05 З 2 20 км мгла {туман} 1/1 800 м
[Cu med, cong]
+26.8 +7.5 29 +26 +46 жарко 1007.3 736.9 +8.9 +27.3
21 20.05 С 2 10 км мгла {туман} 4/4 800 м
[Cu med, cong]
+27.6 +3.8 22 +26 +36 жарко 1001.6 735.7
00 21.05 Ю 1 10 км гроза без осадков {ливн. осадки} 9/9 600 м
[Cb cap]
+13.9 +11.6 86 +14 +14 999.3 735.7 29
06 21.05 ЮВ 1 10 км {гроза, дождь} 9/9 600 м
[Cb cap]
+12.0 +8.2 78 +12 +12 1006.7 738.8 2
09 21.05 Ю 1 10 км 4/4 800 м
[Sc diur, vesp]
+9.4 +6.1 80 +9 +9 1009.8 737.6
12 21.05 ЮЗ 1 20 км мгла {туман} ясно +7.5 +5.8 89 +7 +7 1013.8 738.3 +6.2 +29.4
15 21.05 СВ 1 25 км мгла {туман} ясно +17.8 +7.7 52 +19 +29 1015.6 739.5
18 21.05 СЗ 2 25 км {туман} туман 1/1 800 м
[Cu med, cong]
+24.5 +7.7 34 +25 +44 комфорт 1012.2 739.1 +5.8 +25.2
21 21.05 ЮВ 2 15 км мгла {туман} 4/4 800 м
[Cb calv]
+27.0 +8.0 30 +27 +36 жарко 1005.4 737.4
00 22.05 СЗ 2 10 км гроза с градом {дождь} 10/10 600 м
[Cb cap]
+17.6 +10.0 61 +18 +18 1001.9 737.4 5
03 22.05 Ю 2 10 км слабый переохл. дождь (гололёд) {гроза} 10/8 800 м
[Cb cap Ac As]
+15.3 +8.4 63 +15 +15 1004.1 739.4 0.6
06 22.05 З 2 10 км {дождь} ясно +12.8 +8.8 77 +12 +12 1006.8 739.6 +5.8 +28.2 0.6
09 22.05 ЮЗ 1 10 км ясно +10.6 +7.6 82 +10 +10 1009.7 738.8
12 22.05 ЮВ 1 10 км мгла {туман} ясно +8.8 +7.1 89 +8 +8 1013.3 738.9 +7.5 +28.2
15 22.05 ЮЗ 1 20 км мгла {туман} 4/0
[Ci sp]
+17.4 +9.8 61 +18 +28 1014.9 739.7
18 22.05 СЗ 2 18 км {туман} 5/1 800 м
[Cu med, cong Ci sp]
+25.1 +11.3 42 +26 +44 жарко 1011.2 739.0 +7.2 +25.8
21 22.05 ЮВ 3 15 км мгла {туман} 5/5 600 м
[Cb cap]
+27.7 +11.4 36 +29 +35 жарко 1004.5 737.0
00 23.05 ЮЗ 6 10 км слабый переохл. дождь (гололёд) {гроза} 10/9 600 м
[Cb cap Ac cuf]
+15.2 +10.7 74 +14 +14 1003.9 737.9 9
03 23.05 Ю 2 10 км {гроза, дождь} 9/6 800 м
[Cb calv Ac und]
+15.2 +10.2 72 +15 +15 1004.5 738.6 1
06 23.05 СВ 1 10 км {гроза, дождь} 5/3 600 м
[Sc diur, vesp Ac trans]
+13.0 +9.8 81 +13 +13 1007.2 738.7 1
09 23.05 Ю 1 10 км 1/1 800 м
[Sc diur, vesp]
+10.6 +7.6 82 +10 +10 1009.9 737.8
12 23.05 Ю 1 10 км мгла {туман} ясно +8.6 +6.9 89 +8 +8 1011.8 737.8 +7.3 +28.7
15 23.05 СЗ 1 15 км мгла {туман} 4/0
[Ci]
+17.2 +2.4 37 +18 +28 1013.9 738.9
18 23.05 СЗ 2 25 км мгла {туман} 3/0
[Ci]
+25.2 +0.2 19 +24 +44 комфорт 1010.3 738.3 +7.2 +26.0
21 23.05 СЗ 3 30 км 3/3 800 м
[Cu med, cong]
+27.9 +6.2 25 +27 +36 жарко 1003.8 736.6
00 24.05 ЮЗ 5 25 км мгла {туман} 8/4 600 м
[Cb calv Ci]
+22.8 +12.5 52 +26 +26 жарко 998.3 735.5 +7.2 +29.2
03 24.05 З 2 10 км 3/3 800 м
[Sc diur, vesp]
+17.5 +11.4 67 +18 +18 999.6 737.4
06 24.05 Ю 1 10 км 1/1 600 м
[Sc diur, vesp]
+14.0 +10.2 78 +14 +14 1002.7 738.1 +7.2 +29.2
09 24.05 З 1 10 км ясно +13.1 +9.3 78 +13 +13 1004.7 736.9
12 24.05 С 1 10 км мгла {туман} 4/0
[Cs]
+10.3 +8.0 86 +10 +10 1008.5 737.0 +9.1 +29.2
15 24.05 С 2 18 км {туман} туман 3/3 800 м
[Cu med, cong]
+17.6 +11.2 66 +18 +24 1012.2 738.9
18 24.05 В 2 18 км {туман} туман 3/3 800 м
[Cu med, cong]
+23.5 +8.2 38 +24 +39 комфорт 1009.7 738.3 +8.7 +23.9

 

Местоположение метеостанции Toluca (Мексика): широта 19.28 долгота -99.68 высота над уровнем моря 2720 м.

В архиве по умолчанию представлена погода в Toluca за последнюю неделю. Архивные данные за месяц целиком и за предыдущие месяцы, начиная с января 2011 года, Вы можете получить, выбрав интересующий диапазон дат из раскрывающегося списка и нажав кнопку "Ввод!".

Внимание! Время в таблицах - всемирное. Для получения местного времени необходимо прибавить поправку, которая в Toluca равна -6 ч.

Смотрите также архив погоды в соседних городах и на ближайших метеорологических станциях:

Погода в Geografia Unam (Мексика) (53 км)
Погода в Mexico City (Мексика) (54 км)
Погода в Cuernavaca (Мексика) (65 км)
Погода в Zacatepec (Мексика) (84 км)
Погода в Pachuca (Мексика) (136 км)
Погода в Tlaxcala (Мексика) (150 км)
Погода в Tlaxcala Airport (Мексика) (151 км)
Погода в Morelia (Мексика) (156 км)
Погода в Puebla (Мексика) (162 км)
Погода в Queretaro (Мексика) (163 км)

Пояснения к столбцам:

Ветер - указаны скорость ветра в м/с - средняя за 10 мин, порывы в срок и между сроками (в фигурных скобках) и направление, откуда дует ветер: С - северный, СВ - северо-восточный, В - восточный, ЮВ - юго-восточный, Ю - южный, ЮЗ - юго-западный, З - западный, СЗ - северо-западный.
Видимость - горизонтальная дальность видимости в метрах или километрах. При видимости от 1 до 10 км при отсутствии осадков обычно наблюдается дымка, при ухудшении видимости до 1 км и менее - туман. В сухую погоду видимость может ухудшаться дымом, пылью или мглою.
Явления - указаны атмосферные явления, наблюдавшиеся в срок или в последний час перед сроком; фигурными скобками обозначены явления, наблюдавшиеся между сроками (за 1-3 часа до срока); квадратными скобками обозначены град или гололедные отложения с указанием их диаметра в мм.
Облачность - указаны через наклонную черту общая и нижняя облачность в баллах и высота нижней границы облаков в метрах; квадратными скобками обозначены формы облаков: Ci - перистые, Cs - перисто-слоистые, Cc - перисто-кучевые, Ac - высококучевые, As - высокослоистые, Sc - слоисто-кучевые, Ns - слоисто-дождевые, Cu - кучевые, Cb - кучево-дождевые. Подробнее классификацию облаков см. в Атласе облаков (PDF).
T - Температура воздуха - температура, измеренная на высоте 2 м над землей.
Td - Температура точки росы - температура, при понижении до которой содержащийся в воздухе водяной пар достигнет насыщения.
f - Относительная влажность воздуха - влажноcть воздуха, измеренная на высоте 2 м над землей.
Te - Эффективная температура - температура, которую ощущает одетый по сезону человек в тени. Характеристика душности погоды. При расчете учитывается влияние влажности воздуха и скорости ветра на теплоощущения человека.
Tes - Эффективная температура на солнце - температура, которую ощущает человек, с поправкой на солнечный нагрев. Характеристика знойности погоды. Зависит от высоты солнца над горизонтом, облачности и скорости ветра. Ночью, в пасмурную погоду, а также при ветре 12 м/с и более поправка равна нулю.
P - Атмосферное давление - приведенное к уровню моря атмосферное давление.
Po - Атмосферное давление - измеренное на уровне метеостанции атмосферное давление.
Tmin - Минимальная температура - минимум температуры воздуха на высоте 2 м над землей.
Tmax - Максимальная температура - максимум температуры воздуха на высоте 2 м над землей.
R - Количество осадков - Количество выпавших осадков за период времени, мм. При наведении курсора мыши на число - период времени, за который выпало указанное количество осадков.
R24 - Количество осадков - Количество выпавших осадков за 24 часа, мм.
S - Снежный покров - Высота снежного покрова, см. При наведении курсора мыши на число - состояние снежного покрова и степень покрытия местности в баллах.